Location: ??????
(55.8274°N, 37.9338°E)
Time: 06:01:17
(UTC+00:00)

Cosmos 1624 Rocket - Visible Passes

Search period start: 16 July 2024 00:00
Search period end: 26 July 2024 00:00
Orbit: 754 x 781 km, 74.0° (Epoch: 15 July)

Date Brightness Start Highest point End Pass type
(mag) Time Alt. Az. Time Alt. Az. Time Alt. Az.
16 Jul 5.8 20:40:58 11° SE 20:43:59 17° E 20:47:21 10° NE visible
16 Jul 4.0 22:21:13 17° SSW 22:25:17 84° ESE 22:30:35 10° NNE visible
17 Jul 5.7 00:03:37 10° W 00:08:01 26° NW 00:12:27 10° NNE visible
17 Jul 6.1 20:05:57 10° ESE 20:07:21 11° E 20:08:46 10° ENE visible
17 Jul 4.3 21:44:41 19° S 21:48:16 57° ESE 21:53:26 10° NNE visible
17 Jul 5.2 23:25:51 10° WSW 23:30:38 35° NW 23:35:29 10° NNE visible
18 Jul 4.8 21:08:08 19° SSE 21:11:21 38° ESE 21:16:11 10° NE visible
18 Jul 4.7 22:48:22 10° SW 22:53:22 48° NW 22:58:28 10° NNE visible
19 Jul 5.3 20:31:32 16° SE 20:34:32 25° E 20:38:47 10° NE visible
19 Jul 4.2 22:11:47 15° SW 22:16:10 69° WNW 22:21:27 10° NNE visible
19 Jul 6.1 23:55:16 10° W 23:59:14 21° NW 00:03:13 10° NNE visible
20 Jul 5.8 19:54:56 11° SE 19:57:48 17° E 20:01:05 10° NE visible
20 Jul 4.0 21:35:10 18° SSW 21:39:03 82° ESE 21:44:22 10° NNE visible
20 Jul 5.7 23:17:20 10° W 23:21:46 27° NW 23:26:15 10° NNE visible
21 Jul 6.1 19:19:56 10° ESE 19:21:09 11° E 19:22:22 10° ENE visible
21 Jul 4.2 20:58:31 20° S 21:02:03 56° ESE 21:07:12 10° NE visible
21 Jul 5.3 22:39:35 10° WSW 22:44:24 36° NW 22:49:16 10° NNE visible
22 Jul 4.7 20:21:50 18° SSE 20:25:08 37° ESE 20:29:57 10° NE visible
22 Jul 4.8 22:02:04 10° SW 22:07:07 49° NW 22:12:15 10° NNE visible
22 Jul 6.4 23:47:04 10° WNW 23:50:30 17° NNW 23:53:58 10° NNE visible
23 Jul 5.2 19:45:06 14° SE 19:48:19 25° E 19:52:32 10° NE visible
23 Jul 4.2 21:25:20 14° SW 21:29:55 71° WNW 21:35:13 10° NNE visible
23 Jul 6.1 23:08:58 10° W 23:12:58 21° NW 23:17:00 10° NNE visible
24 Jul 5.7 19:08:22 10° SE 19:11:35 17° E 19:14:49 10° NE visible
24 Jul 4.0 20:48:34 16° SSW 20:52:49 81° ESE 20:58:08 10° NNE visible
24 Jul 5.8 22:31:03 10° W 22:35:31 27° NW 22:40:02 10° NNE visible
25 Jul 6.7 00:17:19 10° NW 00:19:30 12° NNW 00:21:43 10° N visible
25 Jul 6.0 18:33:57 10° E 18:34:57 10° E 18:35:56 10° ENE visible
25 Jul 4.2 20:11:43 16° S 20:15:49 54° ESE 20:20:58 10° NE visible
25 Jul 5.4 21:53:18 10° WSW 21:58:09 36° NW 22:03:03 10° NNE visible
25 Jul 6.6 23:38:59 10° NW 23:41:50 14° NNW 23:44:43 10° N visible
